Location: Poughquag
(41.6090°N, 73.6820°W)
Time: 11:55:08
(UTC-04:00)

Transit 2A - Pass Details

Date: 06 June 2020
Orbit: 592 x 967 km, 66.7° (Epoch: 06 July)

Event Time Altitude Azimuth Distance (km) Brightness Sun altitude
Rises 20:00:19 0° 337° (NNW) 3,541 10.4 3.4°
Reaches altitude 10° 20:03:15 10° 349° (N) 2,641 9.4 2.9°
Maximum altitude 20:08:24 26° 45° (NE) 1,780 7.8 2.1°
Drops below altitude 10° 20:13:39 10° 101° (E) 2,704 8.3 1.2°
Sets 20:16:40 0° 113° (ESE) 3,641 8.8 0.7°
